Погода в Шклярска-Порембе

Польша     50°49′46″N   15°29′47″E
темп.,
°C
ветер,
м/с
пор.,
м/с
влажн.,
%
обл.,
%
осадки,
мм/ч
давл.,
гПа
погр.,
м
5 декабря, вс
вс501:00−4ю2596100 1.9 1001204
04:00−3ююз1297100 2.1 100194
07:00−1зюз2798100 2.6 1002603
10:00−1зюз1498100 0.8 1004270
13:000зюз2396100 1.3 1005354
16:00−2ссз119898 0.2 100644
19:00−3сз1197100 0.3 100826
22:00−2ссз1298100 0.1 1009152
6 декабря, пн
пн601:00−2ссз1498100 0.3 1010285
04:00−2ссз1398100 0.5 1011278
07:00−4ссз239787 0.9 1012199
10:00−3сз349166 0.3 1014403
13:00−3ссз358898 0.4 1014630
16:00−5с229786 0.3 101654
19:00−6с229769 0.4 1016127
22:00−6ссз119188 0.1 101691
7 декабря, вт
вт701:00−5зсз118992 0.1 1014198
04:00−4зюз118899 0.0 101348
07:00−5ююз129591 0.1 1013126
10:00−4ю2292100 0.1 1014164
13:00−2ююз2388100 0.1 1012512
16:00−3ююз1293100 0.1 1013130
19:00−6ю1110086 0.1 101422
22:00−6ю129990 0.0 101451
8 декабря, ср
ср801:00−7ю119979 0.1 101335
04:00−6ююв129983 0.0 101163
07:00−6юв229988 0.0 101165
10:00−5ююв249798 0.0 1010159
13:00−3ююв2573100 0.0 1008262
16:00−5юв2387100 0.0 100866
19:00−5юв2587100 0.0 1008147
22:00−4юв5138999 0.1 1007997
9 декабря, чт
чт901:00−5ююв3994100 0.8 1007608
04:00−5ююв3895100 0.4 1006556
07:00−5ююв2796100 1.1 1007442
10:00−5ююв369399 0.4 1008475
13:00−3ююв2390100 0.6 1006438
16:00−5ююв1198100 0.0 100727
19:00−6ссз1198100 0.0 100713
22:00−7ссв1197100 0.0 100612